EW0610 Weather Reports


time (UTC)temp
F
wind
direction
speed
knots
gust
knots
rain 1hr
in
rain 24hr
in
rain mn
in
humidity
%
barometer
mb
20260506092025 57 358 1.7 6.1 0.00 0.00 0.00 71 1010.6
20260506091529 57 360 0.9 7.0 0.00 0.00 0.00 71 1010.6
20260506091102 57 337 1.7 10.4 0.00 0.00 0.00 71 1010.5
20260506090531 57 340 0.9 10.4 0.00 0.00 0.00 71 1010.6
20260506090036 57 38 0.9 4.3 0.00 0.00 0.00 71 1010.6
20260506085542 57 347 0.9 6.1 0.00 0.00 0.00 71 1010.5
20260506085050 58 336 1.7 6.1 0.00 0.00 0.00 72 1010.3
20260506084558 58 333 1.7 8.7 0.00 0.00 0.00 72 1010.4
20260506084029 58 351 1.7 8.7 0.00 0.00 0.00 72 1010.2
20260506083531 58 10 1.7 7.8 0.00 0.00 0.00 72 1010.2
20260506083030 58 341 1.7 9.6 0.00 0.00 0.00 72 1010.1
20260506082536 58 2 1.7 9.6 0.00 0.00 0.00 72 1010.1
20260506082024 58 7 3.5 8.7 0.00 0.00 0.00 72 1010.2
20260506081536 58 24 3.5 9.6 0.00 0.00 0.00 72 1010.2
20260506081027 58 355 1.7 9.6 0.00 0.00 0.00 72 1010.1
20260506080529 58 22 2.6 8.7 0.00 0.00 0.00 72 1010.2
20260506073024 59 14 2.6 7.8 0.00 0.00 0.00 73 1009.7
20260506072529 59 22 3.5 9.6 0.00 0.00 0.00 73 1009.5
20260506072033 59 36 3.5 9.6 0.00 0.00 0.00 73 1009.5
20260506071537 59 36 4.3 7.0 0.00 0.00 0.00 73 1009.5
20260506071024 59 29 2.6 11.3 0.00 0.00 0.00 73 1009.6
20260506070531 59 360 6.1 11.3 0.00 0.00 0.00 72 1009.7
20260506062026 60 348 4.3 9.6 0.00 0.00 0.00 73 1009.8
20260506061534 60 353 0.9 10.4 0.00 0.00 0.00 73 1009.6
20260506061054 60 6 2.6 11.3 0.00 0.00 0.00 73 1009.7
20260506060539 60 3 1.7 10.4 0.00 0.00 0.00 73 1009.7
20260506051024 61 347 0.9 5.2 0.00 0.00 0.00 74 1009.9
20260506050529 61 16 1.7 9.6 0.00 0.00 0.00 74 1010.0
20260506050103 61 350 2.6 10.4 0.00 0.00 0.00 74 1010.0
20260506045034 61 21 3.5 9.6 0.00 0.00 0.00 74 1009.8
20260506044541 61 327 1.7 9.6 0.00 0.00 0.00 74 1009.6
20260506044043 61 7 1.7 9.6 0.00 0.00 0.00 74 1009.6
20260506043526 62 1 3.5 11.3 0.00 0.00 0.00 74 1009.7
20260506043026 62 349 4.3 11.3 0.00 0.00 0.00 74 1009.7
20260506042538 62 29 2.6 8.7 0.00 0.00 0.00 74 1009.6
20260506042028 62 15 0.9 7.0 0.00 0.00 0.00 74 1009.6
20260506041604 62 11 1.7 9.6 0.00 0.00 0.00 74 1009.6
20260506041030 63 326 4.3 9.6 0.00 0.00 0.00 73 1009.6
20260506040533 63 354 3.5 13.0 0.00 0.00 0.00 73 1009.6
20260506040033 63 6 1.7 13.0 0.00 0.00 0.00 73 1009.5
20260506035541 63 328 0.9 8.7 0.00 0.00 0.00 73 1009.5
20260506035044 64 18 1.7 7.8 0.00 0.00 0.00 73 1009.3
20260506034552 64 337 1.7 11.3 0.00 0.00 0.00 73 1009.3
20260506034040 64 355 1.7 12.2 0.00 0.00 0.00 73 1009.1
20260506033525 64 348 2.6 12.2 0.00 0.00 0.00 72 1008.9
20260506033047 64 355 5.2 10.4 0.00 0.00 0.00 72 1008.9
20260506032536 64 3 2.6 8.7 0.00 0.00 0.00 72 1008.5
20260506032041 65 337 3.5 12.2 0.00 0.00 0.00 71 1008.6
20260506031546 65 335 4.3 12.2 0.00 0.00 0.00 71 1008.7
20260506031047 65 15 2.6 12.2 0.00 0.00 0.00 71 1008.5
20260506030553 66 331 4.3 12.2 0.00 0.00 0.00 70 1008.5
20260506025543 66 360 2.6 10.4 0.00 0.00 0.00 70 1008.3
20260506025026 67 348 2.6 10.4 0.00 0.00 0.00 70 1008.4
20260506024535 67 338 2.6 9.6 0.00 0.00 0.00 70 1008.1
20260506024021 68 345 4.3 9.6 0.00 0.00 0.00 70 1008.0
20260506023527 68 14 0.9 5.2 0.00 0.00 0.00 70 1007.9
20260506023033 68 326 0.0 8.7 0.00 0.00 0.00 70 1007.8
20260506022540 68 330 2.6 8.7 0.00 0.00 0.00 69 1008.0
20260506022052 68 356 1.7 5.2 0.00 0.00 0.00 69 1007.8
20260506021543 68 335 0.9 4.3 0.00 0.00 0.00 69 1007.4
20260506021028 68 351 1.7 5.2 0.00 0.00 0.00 68 1007.2
20260506020559 68 360 0.0 7.8 0.00 0.00 0.00 68 1007.1
20260506020023 68 339 1.7 7.8 0.00 0.00 0.00 68 1007.2
20260506015524 68 333 0.0 9.6 0.00 0.00 0.00 68 1007.2
20260506015055 68 357 2.6 9.6 0.00 0.00 0.00 67 1007.0
20260506014526 68 350 0.9 10.4 0.00 0.00 0.00 67 1006.8
20260506014032 69 29 3.5 10.4 0.00 0.00 0.00 67 1006.5
20260506013537 69 347 0.9 10.4 0.00 0.00 0.00 67 1006.8
20260506013025 70 39 0.0 9.6 0.00 0.00 0.00 68 1006.8
20260506012532 70 16 0.9 9.6 0.00 0.00 0.00 67 1006.4
20260506012032 70 336 0.0 9.6 0.00 0.00 0.00 67 1006.1
20260506011537 70 355 3.5 9.6 0.00 0.00 0.00 66 1006.2
20260506011044 70 349 0.0 8.7 0.00 0.00 0.00 66 1006.2
20260506010528 71 31 0.9 9.6 0.00 0.00 0.00 66 1006.0
20260506010030 71 343 0.0 7.8 0.00 0.00 0.00 66 1005.9
20260506005544 71 346 0.9 9.6 0.00 0.00 0.00 66 1005.7
20260506005028 72 333 2.6 9.6 0.00 0.00 0.00 65 1005.7
20260506004532 72 347 0.9 8.7 0.00 0.00 0.00 65 1005.7
20260506004039 72 326 3.5 8.7 0.00 0.00 0.00 65 1005.5
20260506003527 73 326 2.6 10.4 0.00 0.00 0.00 65 1005.2
20260506003035 73 18 3.5 10.4 0.00 0.00 0.00 64 1005.1
20260506002539 73 355 0.9 7.8 0.00 0.00 0.00 64 1005.2
20260506002024 74 341 1.7 8.7 0.00 0.00 0.00 64 1005.3
20260506001532 74 345 2.6 10.4 0.00 0.00 0.00 64 1005.0
20260506001024 75 333 4.3 10.4 0.00 0.00 0.00 63 1004.9
20260506000525 75 341 0.9 8.7 0.00 0.00 0.00 62 1004.9
20260506000033 76 10 1.7 8.7 0.00 0.00 0.00 61 1004.9
20260505235539 76 8 1.7 7.8 0.00 0.00 0.00 61 1005.0
20260505235030 77 323 0.9 9.6 0.00 0.00 0.00 61 1004.9
20260505234537 77 331 0.9 9.6 0.00 0.00 0.00 60 1004.8
20260505234042 78 331 2.6 8.7 0.00 0.00 0.00 59 1004.8
20260505233528 78 349 3.5 10.4 0.00 0.00 0.00 59 1004.7
20260505233032 78 346 0.9 10.4 0.00 0.00 0.00 59 1004.6
20260505232524 78 306 0.9 10.4 0.00 0.00 0.00 59 1004.6
20260505232033 79 332 1.7 10.4 0.00 0.00 0.00 58 1004.8
20260505231537 80 315 4.3 8.7 0.00 0.00 0.00 58 1004.7
20260505231048 80 316 1.7 7.8 0.00 0.00 0.00 57 1004.6
20260505230600 80 304 3.5 6.1 0.00 0.00 0.00 56 1004.5
20260505230025 81 347 2.6 12.2 0.00 0.00 0.00 56 1004.5
20260505225524 81 308 1.7 12.2 0.00 0.00 0.00 56 1004.4
20260505225100 82 303 2.6 8.7 0.00 0.00 0.00 55 1004.3
20260505224524 82 10 0.9 6.1 0.00 0.00 0.00 55 1004.1
20260505224058 83 340 1.7 6.1 0.00 0.00 0.00 56 1003.9
20260505223525 83 293 0.9 6.1 0.00 0.00 0.00 56 1003.9
20260505223033 83 293 2.6 8.7 0.00 0.00 0.00 55 1004.0
20260505222542 84 303 1.7 8.7 0.00 0.00 0.00 55 1004.0
20260505222027 85 337 3.5 8.7 0.00 0.00 0.00 53 1003.9
20260505221531 85 339 1.7 9.6 0.00 0.00 0.00 52 1003.6
20260505221039 85 351 2.6 9.6 0.00 0.00 0.00 51 1003.6
20260505220523 85 295 0.9 6.1 0.00 0.00 0.00 49 1003.7
20260505220032 85 342 1.7 8.7 0.00 0.00 0.00 48 1003.5
20260505215544 86 326 2.6 8.7 0.00 0.00 0.00 47 1003.5
20260505215053 86 306 0.0 9.6 0.00 0.00 0.00 47 1003.5
20260505214553 86 320 0.0 9.6 0.00 0.00 0.00 46 1003.7
20260505214041 87 305 2.6 7.8 0.00 0.00 0.00 46 1003.8
20260505213524 87 307 0.0 9.6 0.00 0.00 0.00 46 1003.7
20260505213032 88 307 3.5 9.6 0.00 0.00 0.00 47 1003.6
20260505212540 87 314 0.9 9.6 0.00 0.00 0.00 46 1003.6
20260505212046 88 322 1.7 11.3 0.00 0.00 0.00 46 1003.5
20260505211528 89 335 3.5 11.3 0.00 0.00 0.00 47 1003.6
20260505211034 90 304 3.5 12.2 0.00 0.00 0.00 47 1003.6
20260505210524 91 260 8.7 13.9 0.00 0.00 0.00 48 1003.5
20260505210033 91 239 5.2 17.4 0.00 0.00 0.00 49 1003.7
20260505205541 91 254 10.4 17.4 0.00 0.00 0.00 46 1003.5
20260505205024 91 285 5.2 13.0 0.00 0.00 0.00 48 1003.8
20260505204534 91 265 3.5 13.0 0.00 0.00 0.00 49 1003.9
20260505204024 91 268 8.7 13.0 0.00 0.00 0.00 48 1003.6
20260505203529 90 259 8.7 14.8 0.00 0.00 0.00 48 1003.7
20260505203034 90 256 10.4 14.8 0.00 0.00 0.00 49 1003.8
20260505202538 90 249 8.7 13.9 0.00 0.00 0.00 50 1003.8
20260505202025 90 249 6.1 13.9 0.00 0.00 0.00 48 1003.8
20260505201537 90 247 7.0 13.0 0.00 0.00 0.00 50 1004.0
20260505201021 90 251 6.1 13.9 0.00 0.00 0.00 51 1004.1
20260505200526 90 268 8.7 17.4 0.00 0.00 0.00 51 1004.1
20260505200032 89 278 7.8 17.4 0.00 0.00 0.00 52 1004.0
20260505195521 89 251 12.2 16.5 0.00 0.00 0.00 51 1004.2
20260505195028 89 264 10.4 16.5 0.00 0.00 0.00 51 1004.1
20260505194532 89 245 10.4 16.5 0.00 0.00 0.00 54 1004.1
20260505194041 89 224 6.1 11.3 0.00 0.00 0.00 52 1004.1
20260505193542 88 264 0.9 12.2 0.00 0.00 0.00 56 1004.2
20260505193048 88 257 8.7 14.8 0.00 0.00 0.00 54 1004.2
20260505192533 88 263 3.5 14.8 0.00 0.00 0.00 57 1004.3
20260505192036 87 231 6.1 13.9 0.00 0.00 0.00 55 1004.2
20260505191521 87 195 3.5 13.9 0.00 0.00 0.00 57 1004.1
20260505191031 87 215 7.0 13.9 0.00 0.00 0.00 57 1004.1
20260505190523 86 223 6.1 13.0 0.00 0.00 0.00 58 1004.2
20260505190030 86 196 6.1 13.9 0.00 0.00 0.00 57 1004.1
20260505185532 85 227 10.4 15.6 0.00 0.00 0.00 58 1004.1
20260505185039 85 228 7.0 16.5 0.00 0.00 0.00 58 1004.1
20260505184545 86 227 9.6 16.5 0.00 0.00 0.00 58 1004.2
20260505184047 85 266 7.0 16.5 0.00 0.00 0.00 61 1004.1
20260505183552 84 217 8.7 16.5 0.00 0.00 0.00 60 1004.3
20260505183037 84 259 9.6 16.5 0.00 0.00 0.00 60 1004.3
20260505182521 84 205 11.3 15.6 0.00 0.00 0.00 60 1004.3
20260505182027 84 228 10.4 18.2 0.00 0.00 0.00 61 1004.3
20260505181536 84 254 10.4 18.2 0.00 0.00 0.00 61 1004.2
20260505181041 84 218 8.7 17.4 0.00 0.00 0.00 61 1004.2
20260505180533 84 228 10.4 17.4 0.00 0.00 0.00 62 1004.4
20260505180037 84 232 5.2 12.2 0.00 0.00 0.00 62 1004.4
20260505175525 84 227 3.5 13.0 0.00 0.00 0.00 62 1004.4
20260505175034 84 205 7.8 13.0 0.00 0.00 0.00 62 1004.4
20260505174526 84 231 7.0 14.8 0.00 0.00 0.00 62 1004.2
20260505174032 84 224 7.0 17.4 0.00 0.00 0.00 62 1004.3
20260505173537 83 205 8.7 15.6 0.00 0.00 0.00 63 1004.3
20260505173039 83 224 8.7 14.8 0.00 0.00 0.00 64 1004.2
20260505172545 83 211 9.6 14.8 0.00 0.00 0.00 64 1004.3
20260505172033 83 218 3.5 13.9 0.00 0.00 0.00 64 1004.3
20260505171541 83 224 7.8 14.8 0.00 0.00 0.00 64 1004.4
20260505171044 82 247 9.6 14.8 0.00 0.00 0.00 64 1004.4
20260505170525 82 245 3.5 13.9 0.00 0.00 0.00 65 1004.3
20260505170030 82 179 5.2 14.8 0.00 0.00 0.00 65 1004.4
20260505165531 82 239 8.7 14.8 0.00 0.00 0.00 65 1004.5
20260505165040 81 222 5.2 13.0 0.00 0.00 0.00 67 1004.5
20260505164525 80 217 4.3 13.0 0.00 0.00 0.00 68 1004.4
20260505164027 80 153 6.1 13.0 0.00 0.00 0.00 68 1004.4
20260505163537 80 202 3.5 17.4 0.00 0.00 0.00 69 1004.5
20260505163023 80 238 4.3 17.4 0.00 0.00 0.00 68 1004.4
20260505162532 80 220 6.1 15.6 0.00 0.00 0.00 68 1004.3
20260505162037 79 251 8.7 16.5 0.00 0.00 0.00 67 1004.4
20260505161543 79 205 7.8 16.5 0.00 0.00 0.00 69 1004.3
20260505161026 79 173 11.3 15.6 0.00 0.00 0.00 69 1004.3
20260505160530 79 202 8.7 15.6 0.00 0.00 0.00 70 1004.2
20260505153049 77 222 7.0 16.5 0.00 0.00 0.00 73 1004.2
20260505152555 76 228 2.6 16.5 0.00 0.00 0.00 73 1004.1
20260505152041 76 212 11.3 16.5 0.00 0.00 0.00 73 1004.1
20260505151530 76 216 10.4 15.6 0.00 0.00 0.00 73 1004.1
20260505151033 76 197 6.1 12.2 0.00 0.00 0.00 73 1004.1
20260505150545 76 206 1.7 13.0 0.00 0.00 0.00 74 1004.1
20260505140520 74 225 3.5 12.2 0.00 0.00 0.00 78 1003.8
20260505125025 71 227 7.8 13.9 0.00 0.00 0.00 81 1003.8
20260505124535 71 214 9.6 13.9 0.00 0.00 0.00 81 1003.8
20260505124025 71 208 3.5 13.0 0.00 0.00 0.00 82 1003.6
20260505123601 71 198 6.1 13.9 0.00 0.00 0.00 82 1003.6
20260505123047 71 200 7.0 13.9 0.00 0.00 0.00 82 1003.5
20260505122553 71 216 0.0 13.9 0.00 0.00 0.00 82 1003.5
20260505122031 71 216 8.7 13.9 0.00 0.00 0.00 82 1003.3
20260505121534 70 202 3.5 12.2 0.00 0.00 0.00 82 1003.3
20260505121038 70 227 5.2 12.2 0.00 0.00 0.00 82 1003.3
20260505120543 70 210 0.0 12.2 0.00 0.00 0.00 82 1003.2
20260505120025 70 212 6.1 15.6 0.00 0.00 0.00 82 1003.1
20260505115601 70 214 7.0 15.6 0.00 0.00 0.00 82 1003.2
20260505115032 70 173 10.4 15.6 0.00 0.00 0.00 82 1003.2
20260505114532 70 216 5.2 14.8 0.00 0.00 0.00 82 1003.1
20260505114040 70 231 10.4 15.6 0.00 0.00 0.00 82 1003.1
20260505113527 70 220 7.0 15.6 0.00 0.00 0.00 82 1003.0
20260505113031 70 221 6.1 13.9 0.00 0.00 0.00 82 1002.9
20260505112523 70 207 7.8 14.8 0.00 0.00 0.00 82 1002.9
20260505112031 70 198 5.2 14.8 0.00 0.00 0.00 82 1002.9
20260505111540 70 224 0.9 12.2 0.00 0.00 0.00 82 1002.9
20260505111028 70 203 5.2 15.6 0.00 0.00 0.00 82 1002.8
20260505110534 70 200 7.0 15.6 0.00 0.00 0.00 82 1002.8
20260505102101 71 204 3.5 18.2 0.00 0.00 0.00 81 1002.7
20260505101528 71 220 10.4 18.2 0.00 0.00 0.00 81 1002.9
20260505101035 71 205 5.2 17.4 0.00 0.00 0.00 81 1002.8
20260505100524 71 214 9.6 17.4 0.00 0.00 0.00 81 1002.8
20260505100030 71 200 10.4 17.4 0.00 0.00 0.00 81 1002.8
20260505095550 71 189 6.1 15.6 0.00 0.00 0.00 81 1002.8
20260505095032 71 203 3.5 20.0 0.00 0.00 0.00 80 1003.0
20260505094539 71 190 6.1 16.5 0.00 0.00 0.00 80 1002.9
20260505094026 71 212 9.6 15.6 0.00 0.00 0.00 80 1002.7
20260505093531 71 211 8.7 15.6 0.00 0.00 0.00 80 1002.8
20260505093035 71 206 5.2 20.0 0.00 0.00 0.00 80 1002.9
20260505092542 71 232 7.8 20.0 0.00 0.00 0.00 80 1003.0